| time (UTC) | temp F | wind direction | speed MPH | gust MPH | rain 1hr in | rain 24hr in | rain mn in | humidity % | barometer mb |
| 20260901060136 | 73 | 347 | 0.0 | 0.0 | 0.00 | 0.00 | 0.00 | 94 | 1021.6 |
| 20260901055631 | 73 | 347 | 0.0 | 0.0 | 0.00 | 0.00 | 0.00 | 94 | 1021.9 |
| 20260901055128 | 73 | 110 | 0.0 | 0.0 | 0.00 | 0.00 | 0.00 | 94 | 1021.7 |
| 20260901054625 | 73 | 343 | 0.0 | 0.0 | 0.00 | 0.00 | 0.00 | 94 | 1022.0 |
| 20260901054120 | 73 | 343 | 0.0 | 0.0 | 0.00 | 0.00 | 0.00 | 94 | 1021.8 |
| 20260901053616 | 73 | 13 | 0.0 | 0.0 | 0.00 | 0.00 | 0.00 | 94 | 1021.8 |
| 20260901053112 | 73 | 13 | 0.0 | 0.0 | 0.00 | 0.00 | 0.00 | 94 | 1021.9 |
| 20260901052612 | 73 | 13 | 0.0 | 0.0 | 0.00 | 0.00 | 0.00 | 94 | 1021.8 |
| 20260901052107 | 73 | 13 | 0.0 | 0.0 | 0.00 | 0.00 | 0.00 | 94 | 1022.0 |
| 20260901051607 | 73 | 13 | 0.0 | 0.0 | 0.00 | 0.00 | 0.00 | 94 | 1021.8 |
| 20260901051106 | 73 | 13 | 0.0 | 0.0 | 0.00 | 0.00 | 0.00 | 94 | 1021.9 |
| 20260901050601 | 73 | 330 | 0.0 | 0.0 | 0.00 | 0.00 | 0.00 | 94 | 1021.8 |
| 20260901050056 | 73 | 330 | 0.0 | 0.0 | 0.00 | 0.00 | 0.00 | 94 | 1022.0 |
| 20260901045551 | 73 | 330 | 0.0 | 0.0 | 0.00 | 0.00 | 0.00 | 94 | 1022.2 |
| 20260901045046 | 73 | 185 | 0.0 | 0.0 | 0.00 | 0.00 | 0.00 | 94 | 1022.2 |
| 20260901044542 | 73 | 185 | 0.0 | 0.0 | 0.00 | 0.00 | 0.00 | 94 | 1022.3 |
| 20260901044037 | 73 | 318 | 0.0 | 0.0 | 0.00 | 0.00 | 0.00 | 94 | 1022.2 |
| 20260901043533 | 73 | 318 | 0.0 | 0.0 | 0.00 | 0.00 | 0.00 | 94 | 1022.2 |
| 20260901043028 | 73 | 277 | 0.0 | 0.0 | 0.00 | 0.00 | 0.00 | 94 | 1022.1 |
| 20260901042527 | 73 | 163 | 0.0 | 0.0 | 0.00 | 0.00 | 0.00 | 94 | 1022.1 |
| 20260901042023 | 73 | 163 | 0.0 | 0.0 | 0.00 | 0.00 | 0.00 | 94 | 1022.2 |
| 20260901041519 | 73 | 163 | 0.0 | 0.0 | 0.00 | 0.00 | 0.00 | 94 | 1022.4 |
| 20260901041013 | 73 | 163 | 0.0 | 0.0 | 0.00 | 0.00 | 0.00 | 93 | 1022.1 |
| 20260901040508 | 73 | 163 | 0.0 | 0.0 | 0.00 | 0.00 | 0.00 | 94 | 1022.4 |
| 20260901040007 | 73 | 140 | 0.0 | 0.0 | 0.00 | 0.14 | 0.14 | 94 | 1022.4 |
| 20260901035505 | 73 | 163 | 0.0 | 0.0 | 0.00 | 0.14 | 0.14 | 93 | 1022.3 |
| 20260901034959 | 73 | 251 | 0.0 | 0.0 | 0.00 | 0.14 | 0.14 | 93 | 1022.4 |
| 20260901034459 | 73 | 251 | 0.0 | 0.0 | 0.00 | 0.14 | 0.14 | 93 | 1022.3 |
| 20260901033954 | 73 | 251 | 0.0 | 0.0 | 0.00 | 0.14 | 0.14 | 93 | 1022.5 |
| 20260901033452 | 73 | 251 | 0.0 | 0.0 | 0.00 | 0.14 | 0.14 | 93 | 1022.5 |
| 20260901032951 | 73 | 251 | 0.0 | 0.0 | 0.00 | 0.14 | 0.14 | 93 | 1022.3 |
| 20260901032445 | 73 | 233 | 0.0 | 0.0 | 0.00 | 0.14 | 0.14 | 93 | 1022.3 |
| 20260901031941 | 73 | 233 | 0.0 | 0.0 | 0.00 | 0.14 | 0.14 | 93 | 1022.4 |
| 20260901031436 | 73 | 233 | 0.0 | 0.0 | 0.00 | 0.14 | 0.14 | 93 | 1022.3 |
| 20260901030930 | 73 | 330 | 0.0 | 0.0 | 0.00 | 0.14 | 0.14 | 93 | 1022.5 |
| 20260901030426 | 73 | 330 | 0.0 | 0.0 | 0.00 | 0.14 | 0.14 | 93 | 1022.5 |
| 20260901025925 | 73 | 290 | 0.0 | 0.0 | 0.00 | 0.14 | 0.14 | 93 | 1022.7 |
| 20260901025420 | 73 | 251 | 0.0 | 0.0 | 0.00 | 0.14 | 0.14 | 93 | 1022.7 |
| 20260901024920 | 73 | 251 | 0.0 | 0.0 | 0.00 | 0.14 | 0.14 | 93 | 1022.7 |
| 20260901024419 | 73 | 251 | 0.0 | 0.0 | 0.00 | 0.14 | 0.14 | 93 | 1022.4 |
| 20260901023918 | 74 | 239 | 0.0 | 0.0 | 0.00 | 0.14 | 0.14 | 93 | 1022.8 |
| 20260901023413 | 74 | 239 | 0.0 | 0.0 | 0.00 | 0.14 | 0.14 | 93 | 1022.4 |
| 20260901022908 | 74 | 239 | 0.0 | 0.0 | 0.00 | 0.14 | 0.14 | 93 | 1022.7 |
| 20260901022404 | 74 | 239 | 0.0 | 0.0 | 0.00 | 0.14 | 0.14 | 93 | 1022.5 |
| 20260901021859 | 74 | 239 | 0.0 | 0.0 | 0.02 | 0.14 | 0.14 | 93 | 1022.5 |
| 20260901021354 | 74 | 239 | 0.0 | 0.0 | 0.02 | 0.14 | 0.14 | 93 | 1022.4 |
| 20260901020849 | 74 | 330 | 0.0 | 0.0 | 0.00 | 0.14 | 0.14 | 93 | 1022.3 |
| 20260901020345 | 74 | 330 | 0.0 | 0.0 | 0.00 | 0.14 | 0.14 | 93 | 1022.2 |
| 20260901015844 | 74 | 330 | 0.0 | 0.0 | 0.00 | 0.14 | 0.14 | 93 | 1022.2 |
| 20260901015341 | 74 | 330 | 0.0 | 0.0 | 0.00 | 0.14 | 0.14 | 93 | 1022.3 |
| 20260901014839 | 74 | 330 | 0.0 | 0.0 | 0.00 | 0.14 | 0.14 | 93 | 1022.2 |
| 20260901014336 | 74 | 330 | 0.0 | 0.0 | 0.00 | 0.14 | 0.14 | 93 | 1022.1 |
| 20260901013826 | 74 | 330 | 0.0 | 0.0 | 0.00 | 0.14 | 0.14 | 92 | 1021.9 |
| 20260901013321 | 74 | 330 | 0.0 | 0.0 | 0.00 | 0.14 | 0.14 | 92 | 1021.9 |
| 20260901012816 | 74 | 330 | 0.0 | 0.0 | 0.00 | 0.14 | 0.14 | 92 | 1021.9 |
| 20260901012311 | 74 | 277 | 0.0 | 0.0 | 0.00 | 0.14 | 0.14 | 92 | 1022.0 |
| 20260901011808 | 74 | 175 | 0.0 | 0.0 | 0.00 | 0.14 | 0.14 | 92 | 1022.0 |
| 20260901011302 | 74 | 277 | 0.0 | 0.0 | 0.00 | 0.14 | 0.14 | 92 | 1021.9 |
| 20260901010755 | 74 | 150 | 0.0 | 0.0 | 0.00 | 0.14 | 0.14 | 92 | 1022.0 |
| 20260901010250 | 74 | 145 | 0.0 | 0.0 | 0.00 | 0.14 | 0.14 | 92 | 1021.9 |
| 20260901005748 | 74 | 226 | 0.0 | 0.0 | 0.00 | 0.14 | 0.14 | 92 | 1021.8 |
| 20260901005244 | 74 | 226 | 0.0 | 0.0 | 0.00 | 0.14 | 0.14 | 92 | 1021.8 |
| 20260901004738 | 75 | 175 | 0.0 | 0.0 | 0.00 | 0.14 | 0.14 | 92 | 1021.3 |
| 20260901004233 | 75 | 175 | 0.0 | 0.0 | 0.00 | 0.14 | 0.14 | 92 | 1021.5 |
| 20260901003733 | 76 | 6 | 0.0 | 0.0 | 0.00 | 0.14 | 0.14 | 92 | 1021.5 |
| 20260901003233 | 76 | 6 | 0.0 | 0.0 | 0.00 | 0.14 | 0.14 | 92 | 1021.6 |
| 20260901002726 | 76 | 6 | 0.0 | 0.0 | 0.00 | 0.14 | 0.14 | 92 | 1021.6 |
| 20260901002221 | 76 | 6 | 0.0 | 0.0 | 0.00 | 0.14 | 0.14 | 92 | 1021.6 |
| 20260901001717 | 76 | 6 | 0.0 | 0.0 | 0.00 | 0.14 | 0.14 | 92 | 1021.5 |
| 20260901001213 | 76 | 6 | 0.0 | 0.0 | 0.00 | 0.14 | 0.14 | 92 | 1021.5 |
| 20260901000708 | 76 | 6 | 0.0 | 0.0 | 0.00 | 0.14 | 0.14 | 92 | 1021.5 |
| 20260901000203 | 76 | 6 | 0.0 | 0.0 | 0.00 | 0.14 | 0.14 | 92 | 1021.3 |
| 20260831235701 | 76 | 6 | 0.0 | 0.0 | 0.00 | 0.14 | 0.14 | 92 | 1021.4 |
| 20260831235157 | 76 | 238 | 0.0 | 0.0 | 0.00 | 0.14 | 0.14 | 91 | 1021.5 |
| 20260831234656 | 76 | 238 | 0.0 | 0.0 | 0.00 | 0.14 | 0.14 | 91 | 1021.5 |
| 20260831234152 | 76 | 238 | 0.0 | 0.0 | 0.00 | 0.14 | 0.14 | 91 | 1021.6 |
| 20260831233647 | 76 | 238 | 0.0 | 0.0 | 0.00 | 0.14 | 0.14 | 91 | 1021.6 |
| 20260831233143 | 76 | 238 | 0.0 | 0.0 | 0.40 | 0.14 | 0.14 | 91 | 1021.8 |
| 20260831232637 | 76 | 238 | 0.0 | 0.0 | 0.40 | 0.14 | 0.14 | 91 | 1022.0 |
| 20260831232134 | 76 | 46 | 0.0 | 0.0 | 0.00 | 0.07 | 0.07 | 91 | 1021.8 |
| 20260831231630 | 76 | 263 | 0.0 | 0.0 | 0.00 | 0.07 | 0.07 | 91 | 1021.8 |
| 20260831231126 | 76 | 251 | 0.0 | 0.0 | 0.00 | 0.07 | 0.07 | 91 | 1021.9 |
| 20260831230621 | 76 | 226 | 0.0 | 0.0 | 0.00 | 0.07 | 0.07 | 90 | 1021.9 |
| 20260831230121 | 76 | 251 | 0.0 | 0.0 | 0.00 | 0.07 | 0.07 | 90 | 1022.1 |
| 20260831225610 | 76 | 110 | 0.0 | 2.0 | 0.00 | 0.07 | 0.07 | 89 | 1021.9 |
| 20260831225110 | 76 | 110 | 2.0 | 2.0 | 0.00 | 0.07 | 0.07 | 88 | 1022.2 |
| 20260831224605 | 77 | 297 | 1.0 | 2.0 | 0.21 | 0.07 | 0.07 | 87 | 1022.1 |
| 20260831224101 | 77 | 189 | 0.0 | 2.0 | 0.31 | 0.07 | 0.07 | 85 | 1022.1 |
| 20260831223556 | 78 | 201 | 0.0 | 1.0 | 0.19 | 0.04 | 0.04 | 84 | 1022.2 |
| 20260831223052 | 79 | 105 | 0.0 | 1.0 | 0.05 | 0.01 | 0.01 | 82 | 1022.4 |
| 20260831222548 | 80 | 125 | 0.0 | 2.0 | 0.02 | 0.00 | 0.00 | 80 | 1022.3 |
| 20260831222048 | 81 | 123 | 1.0 | 1.0 | 0.02 | 0.00 | 0.00 | 76 | 1022.2 |
| 20260831221539 | 82 | 160 | 1.0 | 1.0 | 0.00 | 0.00 | 0.00 | 72 | 1022.3 |
| 20260831221039 | 83 | 127 | 0.0 | 2.0 | 0.00 | 0.00 | 0.00 | 66 | 1022.2 |
| 20260831220533 | 85 | 102 | 3.0 | 4.0 | 0.00 | 0.00 | 0.00 | 64 | 1022.3 |
| 20260831220029 | 86 | 267 | 2.0 | 4.0 | 0.00 | 0.00 | 0.00 | 60 | 1022.2 |
| 20260831215525 | 87 | 305 | 0.0 | 0.0 | 0.00 | 0.00 | 0.00 | 56 | 1021.7 |
| 20260831215020 | 87 | 238 | 0.0 | 0.0 | 0.00 | 0.00 | 0.00 | 57 | 1021.9 |
| 20260831214518 | 86 | 290 | 0.0 | 0.0 | 0.00 | 0.00 | 0.00 | 58 | 1021.9 |
| 20260831214013 | 86 | 290 | 0.0 | 0.0 | 0.00 | 0.00 | 0.00 | 58 | 1021.7 |
| 20260831213510 | 86 | 238 | 0.0 | 0.0 | 0.00 | 0.00 | 0.00 | 62 | 1021.8 |
| 20260831213005 | 86 | 238 | 0.0 | 0.0 | 0.00 | 0.00 | 0.00 | 63 | 1021.6 |
| 20260831212501 | 86 | 238 | 0.0 | 0.0 | 0.00 | 0.00 | 0.00 | 61 | 1021.7 |
| 20260831212000 | 86 | 238 | 0.0 | 0.0 | 0.00 | 0.00 | 0.00 | 60 | 1021.6 |
| 20260831211455 | 86 | 223 | 0.0 | 0.0 | 0.00 | 0.00 | 0.00 | 60 | 1021.6 |
| 20260831210954 | 86 | 110 | 0.0 | 0.0 | 0.00 | 0.00 | 0.00 | 58 | 1021.5 |
| 20260831210450 | 86 | 4 | 0.0 | 0.0 | 0.00 | 0.00 | 0.00 | 58 | 1021.5 |
| 20260831205945 | 86 | 251 | 0.0 | 0.0 | 0.00 | 0.00 | 0.00 | 60 | 1021.6 |
| 20260831205441 | 86 | 251 | 0.0 | 0.0 | 0.00 | 0.00 | 0.00 | 59 | 1021.9 |
| 20260831204936 | 86 | 251 | 0.0 | 0.0 | 0.00 | 0.00 | 0.00 | 58 | 1021.6 |
| 20260831204436 | 86 | 251 | 0.0 | 0.0 | 0.00 | 0.00 | 0.00 | 59 | 1021.5 |
| 20260831203935 | 86 | 251 | 0.0 | 0.0 | 0.00 | 0.00 | 0.00 | 58 | 1021.6 |
| 20260831203430 | 86 | 251 | 0.0 | 0.0 | 0.00 | 0.00 | 0.00 | 58 | 1021.4 |
| 20260831202928 | 86 | 124 | 0.0 | 0.0 | 0.00 | 0.00 | 0.00 | 55 | 1021.8 |
| 20260831202423 | 87 | 124 | 0.0 | 0.0 | 0.00 | 0.00 | 0.00 | 55 | 1021.6 |
| 20260831201918 | 87 | 151 | 0.0 | 0.0 | 0.00 | 0.00 | 0.00 | 53 | 1021.7 |
| 20260831201416 | 87 | 194 | 0.0 | 0.0 | 0.00 | 0.00 | 0.00 | 56 | 1021.6 |
| 20260831200912 | 88 | 263 | 0.0 | 0.0 | 0.00 | 0.00 | 0.00 | 54 | 1021.4 |
| 20260831200407 | 88 | 263 | 0.0 | 0.0 | 0.00 | 0.00 | 0.00 | 54 | 1021.3 |
| 20260831195902 | 88 | 263 | 0.0 | 0.0 | 0.00 | 0.00 | 0.00 | 54 | 1021.4 |
| 20260831195357 | 88 | 263 | 0.0 | 0.0 | 0.00 | 0.00 | 0.00 | 51 | 1021.5 |
| 20260831194853 | 88 | 53 | 0.0 | 0.0 | 0.00 | 0.00 | 0.00 | 53 | 1021.4 |
| 20260831194348 | 89 | 110 | 0.0 | 0.0 | 0.00 | 0.00 | 0.00 | 47 | 1021.6 |
| 20260831193847 | 89 | 155 | 0.0 | 1.0 | 0.00 | 0.00 | 0.00 | 49 | 1021.6 |
| 20260831193342 | 89 | 150 | 0.0 | 0.0 | 0.00 | 0.00 | 0.00 | 51 | 1021.8 |
| 20260831192838 | 89 | 250 | 0.0 | 0.0 | 0.00 | 0.00 | 0.00 | 51 | 1021.6 |
| 20260831192332 | 90 | 138 | 0.0 | 1.0 | 0.00 | 0.00 | 0.00 | 46 | 1021.9 |
| 20260831191828 | 90 | 290 | 0.0 | 0.0 | 0.00 | 0.00 | 0.00 | 48 | 1021.8 |
| 20260831191324 | 90 | 290 | 0.0 | 0.0 | 0.00 | 0.00 | 0.00 | 48 | 1021.7 |
| 20260831190820 | 90 | 290 | 0.0 | 0.0 | 0.00 | 0.00 | 0.00 | 48 | 1021.9 |
| 20260831190319 | 90 | 325 | 0.0 | 1.0 | 0.00 | 0.00 | 0.00 | 45 | 1021.6 |
| 20260831185819 | 90 | 110 | 0.0 | 1.0 | 0.00 | 0.00 | 0.00 | 50 | 1022.0 |
| 20260831185315 | 91 | 331 | 0.0 | 0.0 | 0.00 | 0.00 | 0.00 | 45 | 1022.2 |
| 20260831184814 | 92 | 263 | 0.0 | 0.0 | 0.00 | 0.00 | 0.00 | 44 | 1022.1 |
| 20260831184310 | 93 | 84 | 0.0 | 2.0 | 0.00 | 0.00 | 0.00 | 45 | 1022.0 |
| 20260831183805 | 92 | 168 | 0.0 | 0.0 | 0.00 | 0.00 | 0.00 | 49 | 1022.1 |
| 20260831183304 | 92 | 324 | 2.0 | 2.0 | 0.00 | 0.00 | 0.00 | 42 | 1022.1 |
| 20260831182803 | 93 | 94 | 0.0 | 1.0 | 0.00 | 0.00 | 0.00 | 42 | 1022.0 |
| 20260831182305 | 93 | 318 | 0.0 | 0.0 | 0.00 | 0.00 | 0.00 | 45 | 1022.2 |
| 20260831181759 | 93 | 226 | 0.0 | 1.0 | 0.00 | 0.00 | 0.00 | 49 | 1022.1 |
| 20260831181254 | 93 | 75 | 1.0 | 2.0 | 0.00 | 0.00 | 0.00 | 41 | 1022.1 |
| 20260831180754 | 93 | 227 | 2.0 | 2.0 | 0.00 | 0.00 | 0.00 | 41 | 1022.1 |
| 20260831180249 | 92 | 322 | 1.0 | 2.0 | 0.00 | 0.00 | 0.00 | 46 | 1022.3 |
| 20260831175749 | 94 | 84 | 0.0 | 1.0 | 0.00 | 0.00 | 0.00 | 42 | 1022.2 |
| 20260831175246 | 94 | 84 | 0.0 | 1.0 | 0.00 | 0.00 | 0.00 | 42 | 1022.3 |
| 20260831174746 | 94 | 84 | 0.0 | 1.0 | 0.00 | 0.00 | 0.00 | 42 | 1022.5 |
| 20260831174242 | 94 | 84 | 0.0 | 1.0 | 0.00 | 0.00 | 0.00 | 42 | 1022.5 |
| 20260831173740 | 92 | 244 | 3.0 | 3.0 | 0.00 | 0.00 | 0.00 | 46 | 1022.4 |
| 20260831173235 | 92 | 244 | 3.0 | 3.0 | 0.00 | 0.00 | 0.00 | 46 | 1022.3 |
| 20260831172730 | 90 | 290 | 0.0 | 2.0 | 0.00 | 0.00 | 0.00 | 52 | 1022.4 |
| 20260831172225 | 90 | 290 | 0.0 | 2.0 | 0.00 | 0.00 | 0.00 | 52 | 1022.5 |
| 20260831171720 | 90 | 290 | 0.0 | 2.0 | 0.00 | 0.00 | 0.00 | 52 | 1022.5 |
| 20260831171217 | 90 | 290 | 0.0 | 2.0 | 0.00 | 0.00 | 0.00 | 52 | 1022.8 |
| 20260831170714 | 90 | 290 | 0.0 | 2.0 | 0.00 | 0.00 | 0.00 | 52 | 1022.3 |
| 20260831170210 | 90 | 290 | 0.0 | 2.0 | 0.00 | 0.00 | 0.00 | 52 | 1022.5 |
| 20260831165706 | 88 | 145 | 0.0 | 1.0 | 0.00 | 0.00 | 0.00 | 51 | 1022.7 |
| 20260831165202 | 88 | 145 | 0.0 | 1.0 | 0.00 | 0.00 | 0.00 | 51 | 1022.8 |
| 20260831164657 | 88 | 145 | 0.0 | 1.0 | 0.00 | 0.00 | 0.00 | 51 | 1022.9 |
| 20260831164154 | 88 | 145 | 0.0 | 1.0 | 0.00 | 0.00 | 0.00 | 51 | 1022.7 |
| 20260831163648 | 88 | 253 | 1.0 | 2.0 | 0.00 | 0.00 | 0.00 | 51 | 1023.0 |
| 20260831163144 | 87 | 169 | 1.0 | 2.0 | 0.00 | 0.00 | 0.00 | 49 | 1023.0 |
| 20260831162643 | 87 | 233 | 0.0 | 0.0 | 0.00 | 0.00 | 0.00 | 49 | 1023.1 |
| 20260831162141 | 87 | 121 | 1.0 | 2.0 | 0.00 | 0.00 | 0.00 | 49 | 1023.2 |
| 20260831161637 | 88 | 311 | 0.0 | 1.0 | 0.00 | 0.00 | 0.00 | 47 | 1023.1 |
| 20260831161134 | 88 | 201 | 1.0 | 2.0 | 0.00 | 0.00 | 0.00 | 48 | 1023.3 |
| 20260831160632 | 87 | 185 | 0.0 | 1.0 | 0.00 | 0.00 | 0.00 | 52 | 1023.2 |
| 20260831160128 | 87 | 290 | 0.0 | 1.0 | 0.00 | 0.00 | 0.00 | 59 | 1023.2 |
| 20260831155627 | 87 | 328 | 2.0 | 2.0 | 0.00 | 0.00 | 0.00 | 51 | 1023.5 |
| 20260831155123 | 87 | 238 | 0.0 | 0.0 | 0.00 | 0.00 | 0.00 | 56 | 1023.2 |
| 20260831154619 | 88 | 184 | 0.0 | 1.0 | 0.00 | 0.00 | 0.00 | 55 | 1023.1 |
| 20260831154114 | 88 | 65 | 0.0 | 2.0 | 0.00 | 0.00 | 0.00 | 52 | 1023.2 |
| 20260831153613 | 88 | 64 | 1.0 | 1.0 | 0.00 | 0.00 | 0.00 | 62 | 1023.3 |
| 20260831153110 | 88 | 216 | 0.0 | 1.0 | 0.00 | 0.00 | 0.00 | 59 | 1023.2 |
| 20260831152605 | 87 | 260 | 0.0 | 1.0 | 0.00 | 0.00 | 0.00 | 59 | 1023.0 |
| 20260831152100 | 87 | 238 | 0.0 | 0.0 | 0.00 | 0.00 | 0.00 | 60 | 1023.4 |
| 20260831151600 | 86 | 110 | 0.0 | 1.0 | 0.00 | 0.00 | 0.00 | 58 | 1023.4 |
| 20260831151054 | 86 | 135 | 0.0 | 2.0 | 0.00 | 0.00 | 0.00 | 58 | 1023.0 |
| 20260831150544 | 85 | 81 | 1.0 | 1.0 | 0.00 | 0.00 | 0.00 | 60 | 1023.1 |
| 20260831150040 | 82 | 110 | 0.0 | 1.0 | 0.00 | 0.00 | 0.00 | 68 | 1023.0 |
| 20260831145534 | 82 | 110 | 0.0 | 1.0 | 0.00 | 0.00 | 0.00 | 68 | 1022.8 |
| 20260831145031 | 82 | 223 | 0.0 | 0.0 | 0.00 | 0.00 | 0.00 | 71 | 1022.9 |
| 20260831144526 | 82 | 233 | 0.0 | 0.0 | 0.00 | 0.00 | 0.00 | 69 | 1023.0 |
| 20260831144021 | 81 | 231 | 0.0 | 3.0 | 0.00 | 0.00 | 0.00 | 71 | 1023.1 |
| 20260831143516 | 81 | 290 | 1.0 | 2.0 | 0.00 | 0.00 | 0.00 | 69 | 1023.0 |
| 20260831143012 | 81 | 329 | 0.0 | 1.0 | 0.00 | 0.00 | 0.00 | 73 | 1023.0 |
| 20260831142508 | 80 | 150 | 0.0 | 1.0 | 0.00 | 0.00 | 0.00 | 74 | 1022.9 |
| 20260831142003 | 80 | 245 | 0.0 | 0.0 | 0.00 | 0.00 | 0.00 | 74 | 1023.1 |
| 20260831141501 | 80 | 46 | 0.0 | 0.0 | 0.00 | 0.00 | 0.00 | 74 | 1022.8 |
| 20260831140956 | 80 | 263 | 0.0 | 1.0 | 0.00 | 0.00 | 0.00 | 77 | 1022.8 |
| 20260831140456 | 79 | 131 | 0.0 | 1.0 | 0.00 | 0.00 | 0.00 | 74 | 1022.9 |
| 20260831135955 | 79 | 248 | 1.0 | 2.0 | 0.00 | 0.00 | 0.00 | 76 | 1023.2 |
| 20260831135454 | 79 | 52 | 0.0 | 2.0 | 0.00 | 0.00 | 0.00 | 75 | 1023.3 |
| 20260831134949 | 79 | 163 | 1.0 | 1.0 | 0.00 | 0.00 | 0.00 | 76 | 1023.2 |
| 20260831134446 | 78 | 58 | 0.0 | 2.0 | 0.00 | 0.00 | 0.00 | 77 | 1023.2 |
| 20260831133945 | 78 | 27 | 0.0 | 1.0 | 0.00 | 0.00 | 0.00 | 79 | 1023.4 |
| 20260831133440 | 78 | 163 | 0.0 | 1.0 | 0.00 | 0.00 | 0.00 | 79 | 1023.2 |
| 20260831132936 | 78 | 219 | 1.0 | 2.0 | 0.00 | 0.00 | 0.00 | 78 | 1023.4 |
| 20260831132431 | 77 | 330 | 0.0 | 0.0 | 0.00 | 0.00 | 0.00 | 81 | 1023.4 |
| 20260831131930 | 77 | 55 | 0.0 | 2.0 | 0.00 | 0.00 | 0.00 | 81 | 1023.2 |
| 20260831131425 | 77 | 318 | 0.0 | 0.0 | 0.00 | 0.00 | 0.00 | 81 | 1023.5 |
| 20260831130921 | 77 | 251 | 0.0 | 2.0 | 0.00 | 0.00 | 0.00 | 82 | 1023.2 |
| 20260831130417 | 76 | 276 | 0.0 | 2.0 | 0.00 | 0.00 | 0.00 | 84 | 1023.5 |
| 20260831125916 | 75 | 330 | 0.0 | 1.0 | 0.00 | 0.00 | 0.00 | 85 | 1023.4 |
| 20260831125411 | 75 | 276 | 1.0 | 2.0 | 0.00 | 0.00 | 0.00 | 85 | 1023.2 |
| 20260831124906 | 75 | 251 | 0.0 | 0.0 | 0.00 | 0.00 | 0.00 | 85 | 1023.1 |
| 20260831124403 | 74 | 110 | 0.0 | 1.0 | 0.00 | 0.00 | 0.00 | 90 | 1023.2 |
| 20260831123902 | 73 | 303 | 0.0 | 1.0 | 0.00 | 0.00 | 0.00 | 92 | 1023.0 |
| 20260831123401 | 73 | 278 | 0.0 | 1.0 | 0.00 | 0.00 | 0.00 | 93 | 1023.0 |
| 20260831122901 | 72 | 201 | 0.0 | 0.0 | 0.00 | 0.00 | 0.00 | 93 | 1023.2 |
| 20260831122357 | 72 | 325 | 0.0 | 0.0 | 0.00 | 0.00 | 0.00 | 93 | 1023.2 |
| 20260831121852 | 72 | 137 | 0.0 | 1.0 | 0.00 | 0.00 | 0.00 | 93 | 1022.7 |
| 20260831121343 | 72 | 232 | 1.0 | 2.0 | 0.00 | 0.00 | 0.00 | 93 | 1023.1 |
| 20260831120838 | 72 | 240 | 0.0 | 2.0 | 0.00 | 0.00 | 0.00 | 93 | 1023.0 |
| 20260831120337 | 71 | 290 | 0.0 | 0.0 | 0.00 | 0.00 | 0.00 | 93 | 1023.0 |
| 20260831115832 | 71 | 318 | 0.0 | 0.0 | 0.00 | 0.00 | 0.00 | 94 | 1022.8 |
| 20260831115329 | 71 | 110 | 0.0 | 1.0 | 0.00 | 0.00 | 0.00 | 94 | 1022.9 |
| 20260831114828 | 71 | 279 | 0.0 | 0.0 | 0.00 | 0.00 | 0.00 | 94 | 1023.1 |
| 20260831114327 | 71 | 151 | 0.0 | 0.0 | 0.00 | 0.00 | 0.00 | 94 | 1022.8 |
| 20260831113823 | 71 | 147 | 0.0 | 0.0 | 0.00 | 0.00 | 0.00 | 94 | 1022.9 |
| 20260831113323 | 71 | 325 | 0.0 | 2.0 | 0.00 | 0.00 | 0.00 | 94 | 1022.7 |
| 20260831112817 | 71 | 245 | 0.0 | 0.0 | 0.00 | 0.00 | 0.00 | 94 | 1022.9 |
| 20260831112312 | 71 | 267 | 0.0 | 0.0 | 0.00 | 0.00 | 0.00 | 94 | 1022.7 |
| 20260831111808 | 71 | 277 | 0.0 | 0.0 | 0.00 | 0.00 | 0.00 | 94 | 1022.5 |
| 20260831111304 | 71 | 304 | 0.0 | 0.0 | 0.00 | 0.00 | 0.00 | 94 | 1022.7 |
| 20260831110800 | 71 | 290 | 0.0 | 0.0 | 0.00 | 0.00 | 0.00 | 94 | 1022.4 |
| 20260831110255 | 71 | 150 | 0.0 | 1.0 | 0.00 | 0.00 | 0.00 | 94 | 1022.2 |
| 20260831105753 | 71 | 58 | 0.0 | 0.0 | 0.00 | 0.00 | 0.00 | 94 | 1022.2 |
| 20260831105249 | 71 | 269 | 0.0 | 0.0 | 0.00 | 0.00 | 0.00 | 94 | 1022.0 |
| 20260831104744 | 71 | 277 | 0.0 | 0.0 | 0.00 | 0.00 | 0.00 | 94 | 1022.1 |
| 20260831104241 | 71 | 43 | 0.0 | 0.0 | 0.00 | 0.00 | 0.00 | 94 | 1022.1 |
| 20260831103740 | 71 | 201 | 0.0 | 0.0 | 0.00 | 0.00 | 0.00 | 94 | 1021.9 |
| 20260831103236 | 71 | 187 | 0.0 | 0.0 | 0.00 | 0.00 | 0.00 | 94 | 1021.7 |
| 20260831102735 | 71 | 177 | 0.0 | 0.0 | 0.00 | 0.00 | 0.00 | 94 | 1021.8 |
| 20260831102230 | 71 | 233 | 0.0 | 0.0 | 0.00 | 0.00 | 0.00 | 94 | 1021.8 |
| 20260831101726 | 71 | 330 | 0.0 | 1.0 | 0.00 | 0.00 | 0.00 | 94 | 1021.8 |
| 20260831101221 | 71 | 256 | 0.0 | 0.0 | 0.00 | 0.00 | 0.00 | 94 | 1021.6 |
| 20260831100717 | 71 | 134 | 0.0 | 1.0 | 0.00 | 0.00 | 0.00 | 94 | 1021.8 |
| 20260831100213 | 71 | 128 | 1.0 | 1.0 | 0.00 | 0.00 | 0.00 | 94 | 1021.7 |
| 20260831095711 | 71 | 330 | 0.0 | 1.0 | 0.00 | 0.00 | 0.00 | 94 | 1021.8 |
| 20260831095207 | 71 | 311 | 0.0 | 0.0 | 0.00 | 0.00 | 0.00 | 94 | 1021.8 |
| 20260831094702 | 71 | 150 | 0.0 | 1.0 | 0.00 | 0.00 | 0.00 | 94 | 1021.8 |
| 20260831094158 | 71 | 163 | 0.0 | 0.0 | 0.00 | 0.00 | 0.00 | 94 | 1022.0 |
| 20260831093653 | 71 | 311 | 0.0 | 1.0 | 0.00 | 0.00 | 0.00 | 94 | 1022.0 |
| 20260831093149 | 71 | 290 | 0.0 | 0.0 | 0.00 | 0.00 | 0.00 | 94 | 1022.0 |
| 20260831092645 | 71 | 314 | 0.0 | 2.0 | 0.00 | 0.00 | 0.00 | 94 | 1021.8 |
| 20260831092141 | 71 | 251 | 0.0 | 1.0 | 0.00 | 0.00 | 0.00 | 94 | 1021.8 |
| 20260831091640 | 71 | 318 | 0.0 | 0.0 | 0.00 | 0.00 | 0.00 | 94 | 1022.0 |
| 20260831091136 | 71 | 342 | 0.0 | 0.0 | 0.00 | 0.00 | 0.00 | 94 | 1022.1 |
| 20260831090631 | 71 | 237 | 0.0 | 1.0 | 0.00 | 0.00 | 0.00 | 94 | 1021.9 |
| 20260831090127 | 71 | 150 | 0.0 | 0.0 | 0.00 | 0.00 | 0.00 | 94 | 1022.1 |
| 20260831085622 | 71 | 341 | 0.0 | 0.0 | 0.00 | 0.00 | 0.00 | 94 | 1022.0 |
| 20260831085117 | 71 | 255 | 0.0 | 1.0 | 0.00 | 0.00 | 0.00 | 94 | 1021.9 |
| 20260831084613 | 71 | 256 | 0.0 | 0.0 | 0.00 | 0.00 | 0.00 | 94 | 1021.8 |
| 20260831084109 | 71 | 150 | 0.0 | 0.0 | 0.00 | 0.00 | 0.00 | 94 | 1022.0 |
| 20260831083605 | 71 | 150 | 0.0 | 0.0 | 0.00 | 0.00 | 0.00 | 94 | 1021.9 |
| 20260831083105 | 71 | 245 | 0.0 | 0.0 | 0.00 | 0.00 | 0.00 | 94 | 1022.0 |
| 20260831082604 | 71 | 110 | 0.0 | 0.0 | 0.00 | 0.00 | 0.00 | 94 | 1021.8 |
| 20260831082059 | 71 | 320 | 0.0 | 0.0 | 0.00 | 0.00 | 0.00 | 94 | 1021.8 |
| 20260831081555 | 71 | 156 | 0.0 | 0.0 | 0.00 | 0.00 | 0.00 | 94 | 1021.6 |
| 20260831081051 | 71 | 267 | 0.0 | 1.0 | 0.00 | 0.00 | 0.00 | 94 | 1022.1 |
| 20260831080546 | 71 | 277 | 0.0 | 0.0 | 0.00 | 0.00 | 0.00 | 94 | 1021.8 |
| 20260831080042 | 71 | 274 | 0.0 | 0.0 | 0.00 | 0.00 | 0.00 | 93 | 1021.9 |
| 20260831075542 | 71 | 313 | 0.0 | 1.0 | 0.00 | 0.00 | 0.00 | 93 | 1021.5 |
| 20260831075037 | 71 | 204 | 0.0 | 0.0 | 0.00 | 0.00 | 0.00 | 93 | 1021.7 |
| 20260831074537 | 71 | 156 | 0.0 | 0.0 | 0.00 | 0.00 | 0.00 | 93 | 1021.6 |
| 20260831074037 | 71 | 83 | 0.0 | 0.0 | 0.00 | 0.00 | 0.00 | 93 | 1021.8 |
| 20260831073532 | 71 | 245 | 0.0 | 0.0 | 0.00 | 0.00 | 0.00 | 93 | 1021.8 |
| 20260831073031 | 71 | 277 | 0.0 | 0.0 | 0.00 | 0.00 | 0.00 | 93 | 1021.9 |
| 20260831072526 | 71 | 256 | 0.0 | 0.0 | 0.00 | 0.00 | 0.00 | 93 | 1021.6 |
| 20260831072023 | 71 | 256 | 0.0 | 0.0 | 0.00 | 0.00 | 0.00 | 93 | 1021.6 |
| 20260831071521 | 71 | 256 | 0.0 | 0.0 | 0.00 | 0.00 | 0.00 | 93 | 1021.7 |
| 20260831071017 | 71 | 150 | 0.0 | 0.0 | 0.00 | 0.00 | 0.00 | 93 | 1021.7 |
| 20260831070515 | 71 | 163 | 0.0 | 0.0 | 0.00 | 0.00 | 0.00 | 93 | 1021.7 |
| 20260831070011 | 71 | 163 | 0.0 | 0.0 | 0.00 | 0.00 | 0.00 | 93 | 1021.8 |
| 20260831065508 | 71 | 163 | 0.0 | 0.0 | 0.00 | 0.00 | 0.00 | 93 | 1021.8 |
| 20260831065003 | 71 | 163 | 0.0 | 0.0 | 0.00 | 0.00 | 0.00 | 93 | 1021.7 |
| 20260831064458 | 72 | 318 | 0.0 | 0.0 | 0.00 | 0.00 | 0.00 | 93 | 1021.8 |
| 20260831063954 | 72 | 318 | 0.0 | 0.0 | 0.00 | 0.00 | 0.00 | 93 | 1021.9 |
| 20260831063450 | 72 | 318 | 0.0 | 0.0 | 0.00 | 0.00 | 0.00 | 93 | 1022.0 |
| 20260831062948 | 72 | 318 | 0.0 | 0.0 | 0.00 | 0.00 | 0.00 | 93 | 1022.0 |
| 20260831062445 | 72 | 318 | 0.0 | 0.0 | 0.00 | 0.00 | 0.00 | 93 | 1021.9 |
| 20260831061943 | 72 | 318 | 0.0 | 0.0 | 0.00 | 0.00 | 0.00 | 93 | 1022.0 |
| 20260831061442 | 72 | 318 | 0.0 | 0.0 | 0.00 | 0.00 | 0.00 | 93 | 1021.9 |
| 20260831060939 | 72 | 163 | 0.0 | 0.0 | 0.00 | 0.00 | 0.00 | 93 | 1022.2 |
| 20260831060433 | 72 | 256 | 0.0 | 0.0 | 0.00 | 0.00 | 0.00 | 93 | 1022.2 |